Hourly Weather Juarez

Today, 24 November, Tuesday

Time Temperature Precipitation Wind Pressure Humidity
00:00 +14°C° 0 mm 4 mps 614 mmHg 42%
01:00 +13°C° 0 mm 4 mps 614 mmHg 44%
02:00 +13°C° 0 mm 4 mps 613 mmHg 45%
03:00 +13°C° 0 mm 4 mps 613 mmHg 45%
04:00 +12°C° 0 mm 3 mps 613 mmHg 46%
05:00 +12°C° 0 mm 3 mps 613 mmHg 46%
06:00 +14°C° 0 mm 4 mps 614 mmHg 43%
07:00 +15°C° 0 mm 4 mps 615 mmHg 39%
08:00 +18°C° 0 mm 4 mps 616 mmHg 36%
09:00 +20°C° 0 mm 5 mps 617 mmHg 32%
10:00 +22°C° 0 mm 7 mps 617 mmHg 28%
11:00 +24°C° 0 mm 8 mps 617 mmHg 23%
12:00 +26°C° 0 mm 8 mps 617 mmHg 22%
13:00 +26°C° 0 mm 8 mps 616 mmHg 21%
14:00 +27°C° 0 mm 9 mps 616 mmHg 20%
15:00 +24°C° 0 mm 8 mps 615 mmHg 23%
16:00 +23°C° 0 mm 7 mps 615 mmHg 27%
17:00 +21°C° 0 mm 6 mps 615 mmHg 30%
18:00 +20°C° 0 mm 5 mps 615 mmHg 33%
19:00 +18°C° 0 mm 4 mps 615 mmHg 37%
20:00 +16°C° 0 mm 3 mps 615 mmHg 40%
21:00 +16°C° 0 mm 3 mps 615 mmHg 42%
22:00 +14°C° 0 mm 3 mps 615 mmHg 45%
23:00 +14°C° 0 mm 3 mps 615 mmHg 47%

Tomorrow, 25 November, Wednesday

Time Temperature Precipitation Wind Pressure Humidity
00:00 +13°C° 0 mm 3 mps 614 mmHg 48%
01:00 +13°C° 0 mm 3 mps 614 mmHg 49%
02:00 +13°C° 0 mm 2 mps 614 mmHg 50%
03:00 +13°C° 0 mm 2 mps 614 mmHg 53%
04:00 +12°C° 0 mm 2 mps 614 mmHg 55%
05:00 +12°C° 0 mm 2 mps 613 mmHg 58%
06:00 +14°C° 0 mm 2 mps 615 mmHg 52%
07:00 +16°C° 0 mm 2 mps 616 mmHg 45%
08:00 +19°C° 0 mm 1 mps 617 mmHg 39%
09:00 +19°C° 0 mm 2 mps 618 mmHg 35%
10:00 +21°C° 0 mm 2 mps 618 mmHg 31%
11:00 +24°C° 0 mm 3 mps 618 mmHg 27%
12:00 +25°C° 0 mm 3 mps 618 mmHg 26%
13:00 +25°C° 0 mm 3 mps 617 mmHg 25%
14:00 +26°C° 0 mm 3 mps 617 mmHg 24%
15:00 +25°C° 0 mm 3 mps 616 mmHg 27%
16:00 +24°C° 0 mm 2 mps 616 mmHg 30%
17:00 +21°C° 0 mm 2 mps 615 mmHg 33%
18:00 +21°C° 0 mm 1 mps 615 mmHg 37%
19:00 +19°C° 0 mm 1 mps 615 mmHg 40%
20:00 +18°C° 0 mm 1 mps 615 mmHg 43%
21:00 +16°C° 0 mm 1 mps 614 mmHg 45%
22:00 +14°C° 0 mm 0 mps 614 mmHg 47%
23:00 +14°C° 0 mm 0 mps 614 mmHg 49%

Day after tomorrow, 26 November, Thursday

Time Temperature Precipitation Wind Pressure Humidity
00:00 +14°C° 0 mm 1 mps 614 mmHg 50%
01:00 +14°C° 0 mm 1 mps 613 mmHg 51%
02:00 +14°C° 0 mm 1 mps 613 mmHg 53%
03:00 +13°C° 0 mm 1 mps 613 mmHg 55%
04:00 +13°C° 0 mm 1 mps 613 mmHg 58%
05:00 +13°C° 0 mm 2 mps 613 mmHg 61%
06:00 +15°C° 0 mm 2 mps 614 mmHg 55%
07:00 +16°C° 0 mm 2 mps 615 mmHg 50%
08:00 +18°C° 0 mm 2 mps 616 mmHg 44%
09:00 +21°C° 0 mm 1 mps 616 mmHg 39%
10:00 +23°C° 0 mm 1 mps 617 mmHg 34%
11:00 +24°C° 0 mm 1 mps 617 mmHg 29%
12:00 +25°C° 0 mm 1 mps 616 mmHg 28%
13:00 +26°C° 0 mm 2 mps 616 mmHg 28%
14:00 +26°C° 0 mm 2 mps 615 mmHg 27%
15:00 +25°C° 0 mm 2 mps 615 mmHg 31%
16:00 +23°C° 0 mm 2 mps 615 mmHg 35%
17:00 +22°C° 0 mm 1 mps 614 mmHg 39%
18:00 +21°C° 0 mm 1 mps 614 mmHg 43%
19:00 +19°C° 0 mm 1 mps 614 mmHg 47%
20:00 +16°C° 0 mm 0 mps 614 mmHg 50%
21:00 +18°C° 0 mm 1 mps 614 mmHg 51%
22:00 +18°C° 0 mm 1 mps 614 mmHg 53%
23:00 +18°C° 0 mm 1 mps 614 mmHg 54%

27 November, Friday

Time Temperature Precipitation Wind Pressure Humidity
00:00 +16°C° 0 mm 1 mps 614 mmHg 56%
01:00 +16°C° 0 mm 1 mps 614 mmHg 58%
02:00 +16°C° 0 mm 1 mps 614 mmHg 60%
03:00 +15°C° 0 mm 1 mps 614 mmHg 62%
04:00 +15°C° 0 mm 1 mps 614 mmHg 64%
05:00 +15°C° 0 mm 1 mps 614 mmHg 66%
06:00 +16°C° 0 mm 1 mps 614 mmHg 61%
07:00 +18°C° 0 mm 1 mps 615 mmHg 57%
08:00 +19°C° 0 mm 1 mps 616 mmHg 52%
09:00 +21°C° 0 mm 1 mps 616 mmHg 48%
10:00 +23°C° 0 mm 1 mps 617 mmHg 43%
11:00 +24°C° 0 mm 1 mps 617 mmHg 38%
12:00 +25°C° 0 mm 1 mps 616 mmHg 37%
13:00 +25°C° 0 mm 2 mps 616 mmHg 36%
14:00 +26°C° 0 mm 2 mps 615 mmHg 35%
15:00 +24°C° 0.6 mm 2 mps 615 mmHg 45%
16:00 +21°C° 0.6 mm 2 mps 614 mmHg 55%
17:00 +19°C° 0.6 mm 2 mps 614 mmHg 64%
18:00 +19°C° 0.1 mm 1 mps 614 mmHg 69%
19:00 +16°C° 0.1 mm 1 mps 614 mmHg 73%
20:00 +15°C° 0.1 mm 1 mps 614 mmHg 77%
21:00 +15°C° 0 mm 1 mps 614 mmHg 80%
22:00 +13°C° 0 mm 0 mps 613 mmHg 82%
23:00 +13°C° 0 mm 0 mps 613 mmHg 85%

28 November, Saturday

Time Temperature Precipitation Wind Pressure Humidity
00:00 +12°C° 0 mm 0 mps 613 mmHg 85%
01:00 +12°C° 0 mm 0 mps 612 mmHg 86%
02:00 +12°C° 0 mm 0 mps 612 mmHg 86%
03:00 +11°C° 0 mm 0 mps 612 mmHg 86%
04:00 +12°C° 0 mm 1 mps 613 mmHg 87%
05:00 +12°C° 0 mm 1 mps 613 mmHg 87%
06:00 +13°C° 0 mm 2 mps 614 mmHg 83%
07:00 +13°C° 0 mm 2 mps 614 mmHg 79%
08:00 +13°C° 0 mm 3 mps 615 mmHg 75%
09:00 +13°C° 0 mm 3 mps 615 mmHg 72%
10:00 +13°C° 0 mm 3 mps 615 mmHg 70%
11:00 +13°C° 0 mm 4 mps 615 mmHg 67%
12:00 +13°C° 0 mm 4 mps 615 mmHg 64%
13:00 +14°C° 0 mm 4 mps 614 mmHg 61%
14:00 +14°C° 0 mm 4 mps 614 mmHg 58%
15:00 +13°C° 0 mm 3 mps 613 mmHg 59%
16:00 +13°C° 0 mm 3 mps 613 mmHg 60%
17:00 +12°C° 0 mm 3 mps 613 mmHg 61%
18:00 +12°C° 0 mm 2 mps 613 mmHg 63%
19:00 +10°C° 0 mm 2 mps 613 mmHg 66%
20:00 +10°C° 0 mm 1 mps 614 mmHg 69%
21:00 +9°C° 0 mm 1 mps 613 mmHg 70%
22:00 +9°C° 0 mm 1 mps 613 mmHg 71%
23:00 +8°C° 0 mm 1 mps 613 mmHg 73%

29 November, Sunday

Time Temperature Precipitation Wind Pressure Humidity
00:00 +8°C° 0 mm 1 mps 613 mmHg 75%
01:00 +6°C° 0 mm 0 mps 612 mmHg 77%
02:00 +6°C° 0 mm 0 mps 612 mmHg 80%
03:00 +5°C° 0 mm 0 mps 612 mmHg 81%
04:00 +5°C° 0 mm 0 mps 612 mmHg 82%
05:00 +5°C° 0 mm 0 mps 611 mmHg 83%
06:00 +6°C° 0 mm 0 mps 612 mmHg 77%
07:00 +7°C° 0 mm 0 mps 613 mmHg 71%
08:00 +9°C° 0 mm 1 mps 614 mmHg 66%
09:00 +11°C° 0 mm 1 mps 615 mmHg 61%
10:00 +13°C° 0 mm 1 mps 615 mmHg 56%
11:00 +15°C° 0 mm 1 mps 616 mmHg 51%
12:00 +16°C° 0 mm 2 mps 615 mmHg 48%
13:00 +17°C° 0 mm 2 mps 615 mmHg 45%
14:00 +18°C° 0 mm 2 mps 615 mmHg 42%
15:00 +16°C° 0 mm 3 mps 614 mmHg 45%
16:00 +14°C° 0 mm 4 mps 614 mmHg 48%
17:00 +13°C° 0 mm 4 mps 614 mmHg 51%
18:00 +12°C° 0 mm 3 mps 614 mmHg 56%
19:00 +10°C° 0 mm 2 mps 614 mmHg 60%
20:00 +10°C° 0 mm 1 mps 614 mmHg 64%
21:00 +9°C° 0 mm 1 mps 614 mmHg 67%
22:00 +9°C° 0 mm 1 mps 614 mmHg 70%
23:00 +7°C° 0 mm 0 mps 614 mmHg 73%
Show more